Location: Monteux
(44.0348°N, 4.9972°E)
Time: 17:44:44
(UTC+00:00)

USA 238 - Pass Details

Date: 30 November 2020
Orbit: 996 x 1216 km, 63.4° (Epoch: 22 January)

Event Time Altitude Azimuth Distance (km) Brightness Sun altitude
Rises 17:45:00 0° 192° (SSW) 3,706 6.9 -17.7°
Reaches altitude 10° 17:47:39 10° 185° (S) 2,772 6.1 -18.2°
Maximum altitude 17:53:44 43° 116° (ESE) 1,404 4.0 -19.3°
Enters shadow 17:56:01 33° 73° (ENE) 1,686 4.2 -19.7°
